Weather Roundup
Issued by NWS

Home | Current Version | Previous Version | Graphics & Text | Print | Product List | Glossary Off
Versions: 1 2 3 4 5 6 7 8 9 10 11 12 13 14 15 16 17 18 19 20 21 22 23 24 25 26 27 28 29 30 31 32 33 34 35 36 37 38 39 40 41 42 43 44 45 46 47 48 49 50

000
NZUS93 KARX 211210
HRRWXR

CURRENT HOURLY OBSERVATIONS ACROSS
MUCH OF THE UPPER MISSISSIPPI VALLEY
NATIONAL WEATHER SERVICE LA CROSSE WI
700 AM CDT MON AUG 21 2017


...SOUTHEAST MINNESOTA...


CITY           SKY/WX    TMP DP  RH WIND       PRES   REMARKS
ROCHESTER      CLOUDY    64  64 100 S3        30.04F
ROCHESTER/MAYO FAIR      68  68  99 SE3       30.04F
WINONA         CLOUDY    70  68  94 CALM      30.04F
AUSTIN         CLOUDY    66  64  94 CALM      30.03F FOG
ALBERT LEA     CLOUDY    70  66  88 CALM      30.04R
DODGE CENTER   LGT RAIN  66  64  94 SE5       30.03F
PRESTON        CLOUDY    65  64  93 NE3       30.05F FOG
OWATONNA       LGT RAIN  68  64  88 NW12      30.01F
FARIBAULT      CLOUDY    66  64  94 CALM      30.04F
$$

...ELSEWHERE IN MINNESOTA...


CITY           SKY/WX    TMP DP  RH WIND       PRES   REMARKS
MINNEAPOLIS    CLOUDY    68  57  68 NE6       30.04F
INTNL FALLS    MOCLDY    45  43  93 CALM      30.04R
DULUTH         CLOUDY    55  54  96 CALM      30.08R
RED WING       CLOUDY    68  63  83 E5        30.02F
REDWOOD FALLS  MOCLDY    63  60  90 E9        30.01F
MANKATO        CLOUDY    68  66  93 N6        30.04R
WORTHINGTON    CLOUDY    66  66 100 SE8       30.01F FOG
FAIRMONT       CLOUDY    67  65  93 S8        30.01F
$$

...SOUTHWEST WISCONSIN...


CITY           SKY/WX    TMP DP  RH WIND       PRES   REMARKS
LA CROSSE      CLOUDY    71  67  87 SE5       30.04F
PRAIRIE DU CHI MOCLDY    64  63  94 CALM      30.08R
BOSCOBEL       CLOUDY    63  62  97 S3        30.08R FOG
LONE ROCK      FOG       63  63 100 NW3       30.08R VSB 1/4
PLATTEVILLE    CLOUDY    65  65 100 SW7       30.12R
FORT MC COY    CLOUDY    60  60 100 CALM      30.07F
CAMP DOUGLAS   CLOUDY    63  63 100 CALM      30.06R
MAUSTON-NEW LI CLOUDY    63  62  98 CALM      30.06R
VIROQUA        FAIR      64  64 100 CALM      30.07F
WIS DELLS      CLOUDY    64  63  96 CALM      30.08R
$$

...ELSEWHERE IN WISCONSIN...


CITY           SKY/WX    TMP DP  RH WIND       PRES   REMARKS
MILWAUKEE      CLOUDY    70  68  93 CALM      30.06R
MADISON        CLOUDY    64  63  96 CALM      30.07R
GREEN BAY      CLOUDY    64  64 100 S6        30.05R FOG
EAU CLAIRE     CLOUDY    66  63  90 NE5       30.05R
BLACK RVR FLS  PTSUNNY   63  63 100 CALM      30.06S FOG
MEDFORD        PTCLDY    61  60  94 NE3       30.08R
WAUSAU         MOCLDY    66  65  96 NW3       30.06S FOG
WIS RAPIDS     LGT RAIN  67  66  97 CALM      30.08R FOG
MARSHFIELD     CLOUDY    64  62  93 CALM      30.07R FOG
RICE LAKE      CLEAR     56  56  98 CALM      30.09R FOG
$$

...NORTHEAST IOWA...


CITY           SKY/WX    TMP DP  RH WIND       PRES   REMARKS
WATERLOO       LGT RAIN  66  63  90 W12       30.11R
DUBUQUE        CLOUDY    67  66  97 W6        30.14R FOG
DECORAH        CLOUDY    68  64  88 SE3       30.03F
MASON CITY     NOT AVBL
CHARLES CITY   CLOUDY    70  61  73 S21G35    29.95F
OELWEIN        CLOUDY    68  66  94 SW25G36   30.06F
$$

...ELSEWHERE IN IOWA...


CITY           SKY/WX    TMP DP  RH WIND       PRES   REMARKS
DES MOINES     TSTM      69  65  86 NE6       30.14R FOG
IOWA CITY      LGT RAIN  71  70  96 SW7       30.15R
FORT DODGE     CLOUDY    68  59  73 SE16G26   29.94F
MARSHALLTOWN   LGT RAIN  67  65  93 NW8       30.11F
CEDAR RAPIDS   RAIN      68  67  96 N9        30.13F FOG
$$

...NORTHERN ILLINOIS...


CITY           SKY/WX    TMP DP  RH WIND       PRES   REMARKS
CHICAGO-OHARE  CLOUDY    71  68  90 S5        30.05S
CHICAGO-MIDWAY CLOUDY    73  69  87 SW8       30.05S
MOLINE         TSTM      70  67  90 SW9       30.12R
ROCKFORD       CLOUDY    68  66  93 CALM      30.07R
PEORIA         CLOUDY    70  70 100 SW3       30.08R FOG
$$

NOTE: "FAIR" INDICATES FEW OR NO CLOUDS BELOW 12,000 FEET WITH NO
SIGNIFICANT WEATHER AND/OR OBSTRUCTIONS TO VISIBILITY. WIND
SPEEDS ARE IN MILES-PER-HOUR.




USA.gov is the U.S. government's official web portal to all federal, state and local government web resources and services.